Retour au catalogue

HULIANWANG DIGUI-106

ActifCommunicationsLEO
NORAD 66916·PAYLOAD·🇨🇳 China

Lancé Dec 6, 2025 depuis Wenchang Space Launch Site

Loading…

Prochains Passages (prochaines 24 heures)

TLE

FraisSource: Space-Track

Époque: Sep 14, 2026, 04:19 UTC

1 66916U 25285B   26257.18031045 -.00000089  00000-0  75546-4 0  9993
2 66916  50.0056 187.0047 0000212 227.6688 132.4166 13.29325658 37891

Suivez HULIANWANG DIGUI-106 en temps réel avec AllMySat

Download on the App Store